This demonstration page uses our WeatherBlox Daily Observations layout. Learn more.

Left ArrowRight Arrow

Hourly Observations for July 28, 2018

Temp ( °F °C ) Dew Point ( °F °C ) Humidity (%) Winds ( mph kmh ) Pressure ( in mb ) Visibility ( mi km ) Precip ( " mm )
12:51 am 00:51 Mostly Cloudy with Nearby Thunderstorms 82 27.8 59 15 46 46 ENE 26 43 29.91 1013 10 16.0934 N/A
1:22 am 01:22 Cloudy with Thunderstorms 82 28 59 15 45 45 ENE 18 30 29.88 1012 10 16.0934 N/A
1:51 am 01:51 Cloudy with Light Thunderstorms 74 23.3 66 18.9 76 76 E 13 20 29.92 1013 8 12.87472 0.04 1.016
2:23 am 02:23 Mostly Cloudy with Nearby Thunderstorms 72 22 64 18 78 78 SE 14 22 29.94 1014 10 16.0934 N/A
2:47 am 02:47 Mostly Clear 73 23 64 18 74 74 SE 10 17 29.97 1015 10 16.0934 0.01 0.254
2:51 am 02:51 Mostly Clear 73 22.8 63 17.2 71 71 SSE 12 19 29.93 1014 10 16.0934 0.01 0.254
3:51 am 03:51 Clear 73 22.8 64 17.8 74 74 ESE 10 17 29.95 1014 10 16.0934 N/A
4:51 am 04:51 Clear 72 22.2 64 17.8 76 76 S 7 11 29.95 1014 10 16.0934 N/A
5:51 am 05:51 Sunny 72 22.2 64 17.8 76 76 N N/A 29.95 1014 10 16.0934 N/A
6:51 am 06:51 Sunny 74 23.3 64 17.8 71 71 E 3 6 29.95 1014 10 16.0934 N/A
7:51 am 07:51 Sunny 76 24.4 65 18.3 69 69 SW 6 9 29.96 1015 10 16.0934 N/A
8:51 am 08:51 Sunny 80 26.7 64 17.8 58 58 VRB 3 6 29.97 1015 10 16.0934 N/A
9:51 am 09:51 Sunny 84 28.9 61 16.1 46 46 N N/A 29.96 1015 10 16.0934 N/A
10:51 am 10:51 Sunny 89 31.7 60 15.6 38 38 SSE 8 13 29.95 1014 10 16.0934 N/A
11:51 am 11:51 Sunny 91 32.8 57 13.9 32 32 S 10 17 29.92 1013 10 16.0934 N/A
12:51 pm 12:51 Sunny 92 33.3 56 13.3 30 30 N N/A 29.9 1013 10 16.0934 N/A
1:51 pm 13:51 Sunny 95 35 54 12.2 25 25 S 8 13 29.87 1012 10 16.0934 N/A
2:51 pm 14:51 Sunny 98 36.7 50 10 20 20 undefined N/A 29.84 1010 10 16.0934 N/A
3:51 pm 15:51 Sunny 99 37.2 50 10 19 19 W 3 6 29.8 1009 10 16.0934 N/A
4:51 pm 16:51 Sunny 98 36.7 51 10.6 20 20 VRB 5 7 29.78 1009 10 16.0934 N/A
5:51 pm 17:51 Sunny 98 36.7 52 11.1 21 21 SE 5 7 29.77 1008 10 16.0934 N/A
6:51 pm 18:51 Sunny 97 36.1 52 11.1 22 22 S 7 11 29.78 1008 10 16.0934 N/A
7:51 pm 19:51 Clear 96 35.6 51 10.6 22 22 SSE 6 9 29.79 1009 10 16.0934 N/A
8:51 pm 20:51 Clear 94 34.4 52 11.1 24 24 SSE 7 11 29.82 1010 10 16.0934 N/A
9:51 pm 21:51 Partly Cloudy 92 33.3 55 12.8 29 29 W 8 13 29.84 1011 10 16.0934 N/A
10:51 pm 22:51 Clear 89 31.7 58 14.4 35 35 NW 14 22 29.85 1011 10 16.0934 N/A
11:41 pm 23:41 Mostly Cloudy with Nearby Thunderstorms 88 31.1 60 15.6 39 39 NW 13 20 29.8 1009 10 16.0934 N/A
11:51 pm 23:51 Mostly Cloudy with Nearby Thunderstorms 88 31.1 60 15.6 39 39 NW 15 24 29.86 1011 10 16.0934 N/A

Powered by AerisWeather